Probability
0 0 0 0 0 0 0 0 0 0 0 0 0 0 0 0 0 0 0 0 0 0 0 0 0 0 0 0 0 0 0 0 0 0 0 0 0 0 0 0 0 0 0 0
0 0 0 0 0 0 0 0 0 0 0 0 0 0 0 0 0 0 0 0 0 0 0 0 0 0 0 0 0 0 0 0 0 0 0 0 0 0 0 0 0 0 0 0
0 0 0 0 0 0 0 0 0 0 0 0 0 0 0 0 0 0 0 0 0 0 0 0 0 0 0 0 0 0 0 0 0 0 0 0 0 0 0 0 0 0 0 0
0 0 0 0 0 0 0 0 0 0 0 0 0 0 0 0 0 0 0 0 0 0 0 0 0 0 0 0 0 0 0 0 0 0 0 0 0 0 0 0 0 0 0 0
0 0 0 0 0 0 0 0 0 0 0 0 0 0 0 0 0 0 0 0 0 0 0 0 0 0 0 0 0 0 0 0 0 0 0 0 0 0 0 0 0 0 0 0
0 0 0 0 0 0 0 0 0 0 0 0 0 0 0 0 0 0 0 0 0 0 0 0 0 0 0 0 0 0 0 0 0 0 0 0 0 0 0 0 0 0 0 0
0 0 0 0 0 0 0 0 0 0 0 0 0 0 0 0 0 0 0 0 0 0 0 0 0 0 0 0 0 0 0 0 0 0 0 0 0 0 0 0 0 0 0 0
0 0 0 0 0 0 0 0 0 0 0 0 0 0 0 0 0 0 0 0 0 0 0 0 0 0 0 0 0 0 0 0 0 0 0 0 0 0 0 0 0 0 0 0
0 0 0 0 0 0 0 0 0 0 0 0 0 0 0 0 0 0 0 0 0 0 0 0 0 0 0 0 0 0 0 0 0 0 0 0 0 0 0 0 0 0 0 0
0 0 0 0 0 0 0 0 0 0 0 0 0 0 0 0 0 0 0 0 0 0 0 0 0 0 0 0 0 0 0 0 0 0 0 0 0 0 0 0 0 0 0 0
0 0 0 0 0 0 0 0 0 0 0 0 0 0 0 0 0 0 0 0 0 0 0 0 0 0 0 0 0 0 0 0 0 0 0 0 0 0 0 0 0 0 0 0
0 0 0 0 0 0 0 0 0 0 0 0 0 0 0 0 0 0 0 0 0 0 0 0 0 0 0 0 0 0 0 0 0 0 0 0 0 0 0 0 0 0 0 0
0 0 0 0 0 0 0 0 0 0 0 0 0 0 0 0 0 0 0 0 0 0 0 0 0 0 0 0 0 0 0 0 0 0 0 0 0 0 0 0 0 0 0 0
0 0 0 0 0 0 0 0 0 0 0 0 0 0 0 0 0 0 0 0 0 0 0 0 0 0 0 0 0 0 0 0 0 0 0 0 0 0 0 0 0 0 0 0
0 0 0 0 0 0 0 0 0 0 0 0 0 0 0 0 0 0 0 0 0 0 0 0 0 0 0 0 0 0 0 0 0 0 0 0 0 0 0 0 0 0 0 0
0 0 0 0 0 0 0 0 0 0 0 0 0 0 0 0 0 0 0 0 0 0 0 0 0 0 0 0 0 0 0 0 0 0 0 0 0 0 0 0 0 0 0 0
0 0 0 0 0 0 0 0 0 0 0 0 0 0 0 0 0 0 0 0 0 0 0 0 0 0 0 0 0 0 0 0 0 0 0 0 0 0 0 0 0 0 0 0
0 0 0 0 0 0 0 0 0 0 0 0 0 0 0 0 0 0 0 0 0 0 0 0 0 0 0 0 0 0 0 0 0 0 0 0 0 0 0 0 0 0 0 0
0 0 0 0 0 0 0 0 0 0 0 0 0 0 0 0 0 0 0 0 0 0 0 0 0 0 0 0 0 0 0 0 0 0 0 0 0 0 0 0 0 0 0 0
0 0 0 0 0 0 0 0 0 0 0 0 0 0 0 0 0 0 0 0 0 0 0 0 0 0 0 0 0 0 0 0 0 0 0 0 0 0 0 0 0 0 0 0
0 0 0 0 0 0 0 0 0 0 0 0 0 0 0 0 0 0 0 0 0 0 0 0 0 0 0 0 0 0 0 0 0 0 0 0 0 0 0 0 0 0 0 0
0 0 0 0 0 0 0 0 0 0 0 0 0 0 0 0 0 0 0 0 0 0 0 0 0 0 0 0 0 0 0 0 0 0 0 0 0 0 0 0 0 0 0 0
0 0 0 0 0 0 0 0 0 0 0 0 0 0 0 0 0 0 0 0 0 0 0 0 0 0 0 0 0 0 0 0 0 0 0 0 0 0 0 0 0 0 0 0
0 0 0 0 0 0 0 0 0 0 0 0 0 0 0 0 0 0 0 0 0 0 0 0 0 0 0 0 0 0 0 0 0 0 0 0 0 0 0 0 0 0 0 0
0 0 0 0 0 0 0 0 0 0 0 0 0 0 0 0 0 0 0 0 0 0 0 0 0 0 0 0 0 0 0 0 0 0 0 0 0 0 0 0 0 0 0 0
0 0 0 0 0 0 0 0 0 0 0 0 0 0 0 0 0 0 0 0 0 0 0 0 0 0 0 0 0 0 0 0 0 0 0 0 0 0 0 0 0 0 0 0
0 0 0 0 0 0 0 0 0 0 0 0 0 0 0 0 0 0 0 0 0 0 0 0 0 0 0 0 0 0 0 0 0 0 0 0 0 0 0 0 0 0 0 0
Wind_Speed
3 3 6 12 16 16 14 10 7 6 7 12 15 14 14 15 15 14 13 13 11 10 8 7 7 7 7 6 4 3 3 2 1 1 1 1 1 1 2 2 4 4 4 5
1 1 6 11 16 14 11 9 8 8 7 12 13 11 12 14 15 14 13 12 11 10 9 9 9 9 9 9 8 8 8 6 5 4 4 4 3 2 2 2 2 2 4 4
0 3 2 7 9 9 7 8 8 7 9 14 13 14 12 12 14 13 12 10 9 9 8 8 8 8 8 8 8 9 8 8 7 7 7 7 6 5 5 4 2 2 2 2
2 4 4 3 3 4 4 4 7 8 10 12 13 13 7 6 10 12 11 9 8 7 7 6 6 6 6 6 7 7 8 8 8 8 7 7 7 7 6 4 4 3 3 3
3 3 1 4 3 3 3 3 5 8 11 13 14 7 4 9 12 9 7 6 4 4 4 5 6 5 6 7 6 7 7 7 7 6 7 7 7 6 5 5 5 4 4 4
4 3 1 4 4 2 1 1 2 6 8 10 11 7 8 14 14 11 8 5 4 4 4 5 5 5 6 6 6 6 6 5 5 6 6 6 6 5 4 4 5 5 6 6
3 2 4 5 3 1 2 4 6 5 6 5 4 4 10 14 10 7 6 4 3 4 4 4 5 5 5 5 5 4 4 5 6 6 5 5 5 5 5 5 6 6 6 6
3 2 5 4 1 3 5 3 3 4 4 5 7 9 9 9 9 8 7 5 4 4 4 4 3 3 4 4 4 2 3 4 5 5 5 5 5 5 6 6 6 6 6 6
6 6 5 3 4 3 3 3 4 4 5 6 7 7 8 8 9 8 7 6 4 3 5 4 3 2 3 3 2 1 2 3 3 4 4 5 5 5 5 5 5 5 5 5
2 5 4 4 3 3 3 5 6 6 7 5 5 7 8 7 7 7 6 5 4 4 4 5 4 3 2 2 0 1 1 2 2 3 4 4 4 4 4 5 5 5 5 5
4 4 3 5 6 5 4 5 5 5 4 4 5 6 6 6 7 6 6 5 4 4 5 6 5 4 3 1 2 1 0 1 2 2 2 2 3 3 3 3 4 4 3 4
8 8 7 7 5 4 4 4 4 4 4 4 4 5 6 6 6 6 6 6 6 6 6 6 5 5 4 2 3 2 1 1 1 1 2 1 1 1 1 2 4 5 6 6
6 6 6 3 3 3 3 3 3 3 3 5 5 4 5 5 5 6 6 6 7 7 7 7 6 5 4 3 4 3 2 1 1 1 2 2 2 2 2 3 3 4 7 9
5 7 4 4 4 4 4 2 1 2 3 4 4 5 5 5 6 7 7 8 8 7 7 6 5 5 4 3 4 3 2 2 2 1 1 2 2 2 2 3 3 4 6 9
7 6 6 5 4 3 3 1 1 2 4 5 4 5 6 6 7 8 8 8 7 6 6 6 6 6 3 3 4 4 3 2 2 1 1 2 2 3 3 3 3 3 4 5
9 5 5 5 6 5 4 2 2 3 3 4 4 6 6 6 7 7 7 7 7 8 8 7 7 6 4 2 4 4 3 4 4 2 2 2 2 3 3 3 3 4 4 4
12 9 8 7 7 6 5 5 4 3 3 4 5 6 6 6 7 8 8 8 7 6 6 6 8 7 3 3 5 4 3 3 4 3 2 2 2 2 3 3 3 3 4 5
13 12 10 10 8 7 6 5 4 4 3 4 5 4 5 6 7 8 9 9 8 7 6 7 8 7 2 2 4 4 4 3 2 2 2 2 2 2 2 2 3 3 3 4
9 9 9 9 8 7 6 5 4 3 3 3 3 4 4 5 6 7 7 7 8 8 10 11 14 7 3 1 4 4 4 4 3 2 2 3 3 2 2 2 2 3 3 3
9 9 9 8 7 6 5 5 4 3 3 2 2 3 5 6 6 6 6 6 4 5 8 10 8 5 3 1 3 3 4 4 4 3 2 2 2 2 2 2 2 2 2 2
10 9 9 8 7 6 6 5 4 3 3 2 2 3 4 5 5 5 5 5 6 7 9 11 6 4 3 1 2 2 3 4 4 3 3 3 2 2 2 2 2 2 2 2
9 9 9 8 7 6 5 4 4 3 3 2 2 3 3 5 6 5 5 4 6 11 8 5 5 6 6 2 2 2 3 3 3 3 3 3 3 3 3 3 3 2 2 2
8 9 9 8 8 6 4 4 4 4 4 4 3 3 3 4 3 3 5 5 6 11 8 5 8 12 8 2 3 3 3 4 3 3 4 3 3 3 3 3 3 3 3 3
8 9 8 7 6 5 5 5 5 4 4 4 4 4 3 3 4 4 4 9 12 12 6 8 12 11 2 2 3 3 3 3 3 3 3 3 3 3 3 3 3 3 3 3
8 8 7 7 7 6 7 5 4 4 4 3 4 5 4 4 4 4 5 7 11 10 6 8 12 8 1 1 2 3 3 4 4 4 4 3 4 4 4 4 4 4 3 3
7 7 7 8 7 6 5 4 4 4 3 3 4 4 3 3 4 4 4 5 8 9 6 5 5 4 2 2 2 3 3 4 4 4 4 4 4 4 4 4 5 4 4 4
4 4 4 4 4 5 5 5 5 5 5 5 5 4 4 3 3 3 4 4 5 5 5 5 4 3 2 2 3 3 3 4 4 4 4 4 4 4 5 5 4 4 4 4
Wind_Direction
100 80 49 32 20 23 35 28 30 12 9 359 349 344 345 352 357 8 19 26 29 31 27 22 21 20 23 25 32 64 90 78 47 352 353 11 340 293 261 228 220 211 214 220
136 145 54 35 17 13 19 15 11 8 11 348 338 344 351 358 1 5 10 14 16 23 27 29 30 28 31 34 35 46 53 42 29 27 29 23 2 340 329 307 267 228 222 223
21 305 27 20 356 356 1 22 7 2 343 335 341 342 341 350 357 359 358 359 6 11 15 17 18 22 27 25 30 42 45 37 29 28 30 23 18 19 11 356 346 309 267 244
72 51 54 283 287 324 334 31 17 353 340 339 332 314 306 354 357 350 346 346 351 359 6 7 11 17 23 27 31 35 34 28 23 23 23 19 23 21 11 7 7 357 346 325
92 86 352 320 342 358 334 344 360 345 340 341 334 324 350 0 354 337 327 327 335 349 357 3 7 5 28 28 27 30 25 19 14 16 19 19 18 9 4 7 12 10 7 8
100 104 210 264 287 312 225 301 339 337 332 337 352 19 336 332 333 328 329 332 344 350 2 5 354 2 30 22 23 19 11 8 9 15 22 21 14 11 8 17 20 24 30 26
111 139 248 249 288 35 120 268 306 308 306 321 334 267 282 305 316 320 326 331 350 1 356 341 343 7 21 14 8 355 6 17 19 18 26 26 26 24 23 27 31 30 28 23
135 152 242 243 145 163 215 251 281 285 290 301 295 292 302 315 329 338 341 340 346 347 336 329 342 5 7 354 337 357 28 30 24 21 25 28 33 31 29 30 34 25 18 14
185 208 231 219 210 222 199 242 265 268 285 298 300 307 318 323 330 332 333 331 327 323 322 323 327 332 337 324 332 39 44 30 17 20 26 28 35 31 30 30 31 23 17 11
225 257 245 245 253 259 230 234 256 269 282 285 287 298 310 317 323 329 329 323 321 317 315 311 309 296 277 294 218 134 58 16 9 14 19 28 33 31 33 28 23 18 13 5
227 252 258 267 248 247 257 261 275 287 277 278 290 300 304 310 313 318 317 313 313 306 294 289 295 287 274 240 170 170 189 4 10 11 16 30 39 29 22 23 11 3 357 353
207 203 184 220 226 219 233 258 278 295 309 314 303 299 305 305 303 307 310 310 312 309 298 291 289 280 267 219 183 183 214 341 7 1 8 34 37 18 357 342 354 6 5 0
191 173 177 199 202 206 219 244 269 288 299 309 312 306 308 304 302 309 310 314 313 307 299 294 289 280 269 219 185 180 187 166 64 28 22 32 49 50 23 352 351 4 9 11
157 132 155 195 203 207 212 239 292 318 318 313 308 312 316 312 311 317 317 313 308 305 303 302 298 289 277 215 180 171 162 143 120 79 53 63 68 63 55 39 12 352 355 14
175 168 173 181 187 195 196 204 282 323 325 328 322 324 326 326 320 317 314 316 316 318 322 326 320 309 300 200 170 162 152 140 121 102 86 88 79 69 61 53 39 11 1 5
172 165 155 161 183 195 193 203 231 280 302 310 317 321 320 316 311 312 318 328 334 329 327 329 322 312 302 187 158 149 152 154 137 118 101 91 79 75 66 57 46 34 28 12
157 174 179 184 196 202 205 209 220 247 277 294 305 313 322 328 331 334 334 333 324 311 313 326 322 317 301 176 154 146 140 141 130 112 112 114 101 95 87 77 63 52 37 33
182 184 178 179 184 196 209 219 230 245 261 283 306 326 338 339 332 326 326 329 333 336 343 342 334 331 332 159 147 138 136 134 130 130 126 127 123 117 106 92 78 69 48 42
182 176 176 180 184 185 195 213 229 246 274 291 312 323 319 318 318 318 324 335 344 343 336 336 339 350 350 182 146 137 140 139 134 129 127 129 120 120 121 112 98 88 80 67
180 175 175 181 182 183 195 210 222 245 265 272 299 322 326 324 325 327 329 324 305 294 306 321 331 338 339 249 156 147 152 151 149 144 137 137 140 141 141 134 124 112 101 92
178 174 175 179 188 196 200 198 200 229 256 260 268 292 302 309 319 327 330 320 311 322 323 327 334 327 318 272 176 160 161 158 157 158 157 158 157 155 155 151 143 137 132 125
176 174 178 179 183 196 205 197 200 220 242 253 265 284 305 315 323 322 299 272 293 319 323 314 315 313 311 266 180 176 175 169 164 161 163 167 170 172 173 166 159 154 153 151
175 175 176 180 186 193 193 198 206 212 225 237 248 264 274 282 287 295 303 300 306 317 319 304 313 316 308 201 176 179 180 179 178 177 177 177 180 181 178 173 166 161 162 159
175 178 181 177 164 168 199 219 214 216 225 238 244 245 245 275 292 269 261 298 311 316 312 313 324 326 308 168 174 178 183 186 187 186 183 179 180 182 178 169 164 166 168 162
177 174 167 162 174 198 211 212 211 226 234 247 259 257 239 219 239 276 295 300 311 319 316 324 336 340 347 191 191 190 191 195 192 185 186 185 187 186 182 175 170 168 168 166
179 183 187 190 194 196 192 187 200 217 218 241 261 259 252 245 251 267 283 296 308 316 318 316 323 331 306 251 225 210 203 203 200 194 194 193 193 187 182 180 176 171 169 166
190 191 190 203 212 199 188 187 201 215 211 212 235 247 244 252 265 279 293 302 310 313 314 316 316 312 291 260 245 231 213 205 200 197 194 193 190 191 188 183 176 170 165 165